Weather History for Herbert Island, BC

Change the Weather History Date:

Saturday, January 12, 2013

  Actual Average Record
Temperature  
Mean Temperature 36 °F -  
Max Temperature 39 °F - - ()
Min Temperature 34 °F - - ()
Degree Days  
Heating Degree Days 28    
Moisture  
Dew Point 30 °F    
Average Humidity 76    
Maximum Humidity 81    
Minimum Humidity 67    
Precipitation  
Precipitation 0.00 in - - ()
Sea Level Pressure  
Sea Level Pressure 30.39 in    
Wind  
Wind Speed 11 mph ()    
Max Wind Speed 17 mph    
Max Gust Speed -    
T = Trace of Precipitation, MM = Missing Value Source: Averaged Metar Reports

Daily Weather History Graph

Daily Weather History Graph

Search for Another Location

Airport:

Trip Planner

Search our weather history database for the weather conditions in past years. The results will help you decide how hot, cold, wet, or windy it might be!

Date:

Astronomy

Jan. 12, 2013 Rise Set
Actual Time 8:28 AM PST 4:49 PM PST
Civil Twilight 7:50 AM PST 5:27 PM PST
Nautical Twilight 7:09 AM PST 6:09 PM PST
Astronomical Twilight 6:29 AM PST 6:48 PM PST
Moon 8:39 AM PST (1/12) 6:40 PM PST (1/12)
Length of Visible Light 9h 37m
Length of Day
8h 20m
New Moon, 2% of the Moon is Illuminated
Jan 12
New Moon
Jan 18
First Quarter
Jan 26
Full
Feb 3
Last Quarter
Feb 9
New

Hourly Weather History & Observations

Time (PST) Temp. Windchill Dew Point Humidity Pressure Visibility Wind Dir Wind Speed Gust Speed Precip Events Conditions
12:00 AM 36.0 °F 26.7 °F 29.5 °F 77% 30.30 in - ESE 15.0 mph - N/A   Unknown
1:00 AM 36.1 °F 26.9 °F 29.7 °F 77% 30.31 in - ESE 15.0 mph - N/A   Unknown
2:00 AM 36.0 °F 26.7 °F 29.7 °F 78% 30.33 in - ESE 15.0 mph - N/A   Unknown
3:00 AM 35.8 °F 26.1 °F 29.3 °F 77% 30.34 in - ESE 16.1 mph - N/A   Unknown
4:00 AM 35 °F - 30 °F 74% 30.34 in - ESE 16.1 mph - -  
4:00 AM 35.2 °F 25.4 °F 29.7 °F 80% 30.34 in - ESE 16.1 mph - N/A   Unknown
5:00 AM 35.2 °F 25.0 °F 29.7 °F 80% 30.34 in - ESE 17.3 mph - N/A   Unknown
6:00 AM 35.4 °F 26.4 °F 29.8 °F 80% 30.35 in - ESE 13.8 mph - N/A   Unknown
7:00 AM 35.1 °F 25.5 °F 29.5 °F 80% 30.36 in - ESE 15.0 mph - N/A   Unknown
8:00 AM 35.4 °F 26.4 °F 29.8 °F 80% 30.38 in - ESE 13.8 mph - N/A   Unknown
9:00 AM 35.6 °F 27.1 °F 29.7 °F 79% 30.40 in - ESE 12.7 mph - N/A   Unknown
10:00 AM 36 °F - 30 °F 73% 30.40 in - ESE 13.8 mph - -  
10:00 AM 35.8 °F 26.9 °F 30.4 °F 81% 30.40 in - ESE 13.8 mph - N/A   Unknown
11:00 AM 36.3 °F 28.0 °F 30.4 °F 79% 30.42 in - ESE 12.7 mph - N/A   Unknown
12:00 PM 36.9 °F 29.1 °F 31.1 °F 80% 30.42 in - ESE 11.5 mph - N/A   Unknown
1:00 PM 38.1 °F 31.7 °F 30.9 °F 75% 30.40 in - SE 9.2 mph - N/A   Unknown
2:00 PM 37.6 °F 32.3 °F 30.0 °F 74% 30.41 in - SE 6.9 mph - N/A   Unknown
3:00 PM 37.9 °F 34.4 °F 30.6 °F 75% 30.41 in - SE 4.6 mph - N/A   Unknown
4:00 PM 37 °F - 30 °F 67% 30.42 in - Calm Calm - -  
4:00 PM 37.2 °F - 30.0 °F 75% 30.42 in - Calm Calm - N/A   Unknown
5:00 PM 37.4 °F - 30.0 °F 75% 30.42 in - NW 1.2 mph - N/A   Unknown
6:00 PM 38.1 °F 34.6 °F 29.5 °F 71% 30.43 in - NNW 4.6 mph - N/A   Unknown
7:00 PM 38.5 °F 33.4 °F 30.6 °F 73% 30.43 in - NW 6.9 mph - N/A   Unknown
8:00 PM 38.7 °F 32.4 °F 30.9 °F 74% 30.43 in - NW 9.2 mph - N/A   Unknown
9:00 PM 38.3 °F 31.4 °F 31.1 °F 75% 30.43 in - NNW 10.4 mph - N/A   Unknown
10:00 PM 38 °F - 31 °F 67% 30.42 in - NW 5.8 mph - -  
11:00 PM 38.5 °F 32.7 °F 32.0 °F 78% 30.43 in - NNW 8.1 mph - N/A   Unknown